NOAA 16 DEB

Satellite information

Favourite Embed

Satellite Type and Status

DEBRISIN ORBIT

Key statistics

Satellite NOAA 16 DEB at a glance.

Uptime

9056

Days in orbit

Revolutions

≈ 14.2

Per day

Orbit

SSO

Sun Synchronous Orbit

Inclination

98.6

Latest

Satellite identification and parameters

Extended collection of information and parameters for NOAA 16 DEB.

Object identification

Identified? True

Debris? True

Object name: NOAA 16 DEB

International designator: 2000-055AA

Object number (NORAD): 41067

Object ID (CCSDS): 41067

Country: UNITED STATES OF AMERICA (US)

Current information (Y/N): Y

RCS size: SMALL

Orbital parameters

Period: 101.611 minutes

Inclination: 98.5578 deg

SMA: 7213.067 km

Apoapsis: 838.3 km

Periapsis: 831.563 km

RAAN: 230.6096 deg

Eccentricy: 0.000467

Argument of periapsis: 167.665 deg

Mean anomaly: 192.464 deg

Mean motion: 14.17172947 rev/day

Mean motion (dot): 0.0000065 rev/day2

B* drag term: 0.00034339 1/REarth

Two-line elements (TLE)

Creation date: July 7, 2025, 10:26 p.m.

Reference frame: TEME

Reference center: EARTH

Epoch: July 7, 2025, 8:27 p.m. UTC

TLE line 0: 0 NOAA 16 DEB

TLE line 1: 1 41067U 00055AA 25188.85270064 .00000650 00000-0 34339-3 0 9990

TLE line 2: 2 41067 98.5578 230.6096 0004670 167.6650 192.4640 14.17172947496026

Live tracking on map

Real-time ground track for satellite NOAA 16 DEB.

In-orbit conjunctions

A list of the most updated potential collisions computed for object NOAA 16 DEB.

Target Orbit TCA Probability of collision Miss distance Type
CZ-6A DEB LEO 2025-03-28 22:41:18 0.0001447105 234.0 (m) DEBRIS
CZ-6A DEB LEO 2025-01-24 20:50:40 0.0002485012 848.0 (m) DEBRIS

Associated space launch

The NOAA K, L and M POES satellites begin the fifth generation of improved environmental monitoring in support of NOAA missions. The instrument payload has significant improvements and additions/deletions. The instrument changes have effected the spacecraft subsystems and data formats.

NOAA 16 DEB was lifted into orbit during the mission ‘Titan II SLV | NOAA 16’, on board a Titan II SLV space rocket.

The launch took place on Sept. 21, 2000, 10:22 a.m. from Space Launch Complex 4W.

For more information about the launch, click the button.

Launch to space Titan II SLV | NOAA 16
Titan II SLV | NOAA 16

Agency: N/A

Status: Launch Successful

Launch date: Sept. 21, 2000, 10:22 a.m. UTC

Rocket: Titan II SLV

Launch pad: Space Launch Complex 4W

Location: Vandenberg SFB, CA, USA

...

Latest news about this satellite

There are no fresh news available about this satellite. Check back as we update our databases every day.


Newsletter sign-up

Weekly statistics, charts and insights to help you stay on top of the space industry.